Flag for U.S.A. Weather past 2 weeks in Hartford, Connecticut, U.S.A.

Now
38 °F

Sunny.


Feels Like: 31 °F
Forecast: 31 / 47 °F
Wind: 9 mph from North

Location: Hartford-Brainard Airport

Current Time: Apr 1, 2015 at 10:52:14 AM

Latest Report: Apr 1, 2015 at 9:53 AM


Visibility: 10 mi

Pressure: 30.03 "Hg

Humidity: 29%

Dew point: 8 °F

Location of HartfordLocation

Historic Weather in Hartford — Graph

°F

Hartford temperature yesterday

Maximum temperature yesterday: 48 °F (at 2:53 PM)
Minimum temperature yesterday: 29 °F (at 6:53 AM)
Average temperature yesterday: 39 °F

Past Weeks' High & Low Weather Summary

 TemperatureHumidityPressure
High51 °F (Mar 17, 2:53 PM)100% (Mar 26, 4:53 AM)30.42 "Hg (Mar 26, 4:53 AM)
Low19 °F (Mar 23, 4:53 AM)17% (Mar 29, 4:53 PM)29.48 "Hg (Mar 17, 2:53 PM)
Average34 °F58%30.02 "Hg
* Reported Mar 17 9:53 AM — Apr 1 9:53 AM, Hartford, Weather by CustomWeather, © 2015

Note: Actual official high and low records may vary slightly from our data, if they occured in-between our weather recording intervals... More about our weather records

Advertising

Hartford weather history for previous 24 hours

 ConditionsComfort  
Time TempWeatherWind HumidityBarometerVisibility
9:53 AM
Wed, Apr 1
38 °FSunny.9 mph29%30.03 "Hg10 mi
8:53 AM36 °FSunny.8 mph34%30.01 "Hg10 mi
7:53 AM33 °FSunny.7 mph48%29.99 "Hg10 mi
6:53 AM28 °FClear.8 mph51%29.96 "Hg10 mi
5:53 AM28 °FClear.6 mph61%29.92 "Hg10 mi
4:53 AM27 °FClear.6 mph66%29.88 "Hg10 mi
4:04 AM26 °FIce fog.3 mph96%29.86 "Hg1 mi
3:53 AM27 °FIce fog.3 mph92%29.85 "Hg0 mi
2:53 AM30 °FIce fog.No wind100%29.83 "Hg0 mi
1:53 AM31 °FIce fog.5 mph100%29.81 "Hg0 mi
12:53 AM31 °FIce fog.6 mph92%29.79 "Hg0 mi
11:53 PM
Tue, Mar 31
32 °FFog.No wind88%29.79 "Hg0 mi
10:53 PM34 °FFog.3 mph92%29.80 "Hg4 mi
9:53 PM34 °FFog.6 mph97%29.78 "Hg5 mi
8:53 PM37 °FMostly cloudy.No wind89%29.79 "Hg9 mi
7:53 PM37 °FLight rain. More clouds than sun.N/A86%29.78 "Hg9 mi
6:53 PM38 °FLight rain. Overcast.9 mph83%29.77 "Hg9 mi
5:53 PM43 °FMostly cloudy.6 mph51%29.75 "Hg10 mi
4:53 PM46 °FOvercast.13 mph40%29.75 "Hg10 mi
3:53 PM47 °FOvercast.14 mph37%29.74 "Hg10 mi
2:53 PM48 °FScattered clouds.13 mph36%29.73 "Hg10 mi
1:53 PM47 °FPartly sunny.8 mph37%29.74 "Hg10 mi
12:53 PM47 °FPartly sunny.12 mph37%29.76 "Hg10 mi
11:53 AM46 °FScattered clouds.10 mph40%29.79 "Hg10 mi
10:53 AM44 °FPassing clouds.8 mph43%29.82 "Hg10 mi
Weather by CustomWeather, © 2015

See weather overviewHow to use our weather pages